This demonstration page uses our WeatherBlox Daily Observations layout. Learn more.

Hourly Observations for August 17, 2017

Temp ( °F °C ) Dew Point ( °F °C ) Humidity (%) Winds ( mph kmh ) Pressure ( in mb ) Visibility ( mi km ) Precip ( " mm )
12:54 am 00:54 Clear 66 18.9 61 16.1 84 84 W 8 13 29.85 1011 10 16.0934 0 0
1:54 am 01:54 Clear 66 18.9 61 16.1 84 84 W 10 17 29.85 1011 10 16.0934 0 0
2:54 am 02:54 Clear 65 18.3 61 16.1 87 87 W 7 11 29.84 1010 10 16.0934 0 0
3:54 am 03:54 Clear 64 17.8 60 15.6 87 87 W 6 9 29.86 1011 10 16.0934 0 0
4:54 am 04:54 Clear 64 17.8 60 15.6 87 87 W 8 13 29.88 1012 10 16.0934 0 0
5:54 am 05:54 Clear 64 17.8 59 15 84 84 WNW 10 17 29.89 1012 10 16.0934 0 0
6:54 am 06:54 Sunny 63 17.2 58 14.4 84 84 W 8 13 29.92 1013 10 16.0934 0 0
7:54 am 07:54 Sunny 65 18.3 58 14.4 78 78 WNW 8 13 29.93 1014 10 16.0934 0 0
8:54 am 08:54 Sunny 69 20.6 59 15 70 70 WNW 10 17 29.93 1014 10 16.0934 0 0
9:54 am 09:54 Sunny 72 22.2 58 14.4 61 61 WNW 14 22 29.94 1014 10 16.0934 0 0
10:54 am 10:54 Sunny 76 24.4 58 14.4 54 54 NW 17 28 29.95 1014 10 16.0934 0 0
11:54 am 11:54 Sunny 78 25.6 56 13.3 47 47 NW 10 17 29.96 1014 10 16.0934 0 0
12:54 pm 12:54 Sunny 80 26.7 57 13.9 45 45 NW 14 22 29.95 1014 10 16.0934 0 0
1:54 pm 13:54 Sunny 82 27.8 55 12.8 40 40 WNW 16 26 29.94 1014 10 16.0934 0 0
2:54 pm 14:54 Sunny 84 28.9 56 13.3 38 38 NW 14 22 29.93 1014 10 16.0934 0 0
3:54 pm 15:54 Sunny 84 28.9 58 14.4 41 41 NW 9 15 29.92 1013 10 16.0934 0 0
4:54 pm 16:54 Sunny 84 28.9 58 14.4 41 41 WNW 9 15 29.91 1013 10 16.0934 0 0
5:54 pm 17:54 Sunny 84 28.9 61 16.1 46 46 W 8 13 29.91 1013 10 16.0934 0 0
6:54 pm 18:54 Sunny 83 28.3 62 16.7 49 49 W 7 11 29.91 1013 10 16.0934 0 0
7:54 pm 19:54 Sunny 79 26.1 64 17.8 60 60 SSW 5 7 29.89 1012 10 16.0934 0 0
8:54 pm 20:54 Clear 75 23.9 65 18.3 71 71 S 3 6 29.89 1012 9 14.48406 0 0
9:54 pm 21:54 Clear 70 21.1 64 17.8 82 82 S 5 7 29.91 1013 10 16.0934 0 0
10:54 pm 22:54 Clear 71 21.7 63 17.2 76 76 S 5 7 29.9 1013 10 16.0934 0 0
11:54 pm 23:54 Clear 68 20 62 16.7 81 81 SSW 3 6 29.9 1013 10 16.0934 0 0

Powered by AerisWeather